Time,TemperatureF,DewpointF,PressureIn,WindDirection,WindDirectionDegrees,WindSpeedMPH,WindSpeedGustMPH,Humidity,HourlyPrecipIn,Conditions,Clouds,dailyrainin,SoftwareType,DateUTC
2013-06-08 00:01:00,66.0,56.7,29.45,ENE,57,0.0,0.0,72,0.00,,BKN090,0.00,VWS V14.01,2013-06-08 05:01:00,
2013-06-08 00:11:00,65.8,56.5,29.45,ENE,57,0.0,0.0,72,0.00,,BKN090,0.00,VWS V14.01,2013-06-08 05:11:00,
2013-06-08 00:16:00,65.7,56.4,29.45,ENE,57,0.0,0.0,72,0.00,,BKN090,0.00,VWS V14.01,2013-06-08 05:16:00,
2013-06-08 00:26:00,65.7,56.4,29.45,ENE,57,0.0,0.0,72,0.00,,BKN090,0.00,VWS V14.01,2013-06-08 05:26:00,
2013-06-08 00:36:00,65.6,56.7,29.45,ENE,57,0.0,0.0,73,0.00,,BKN090,0.00,VWS V14.01,2013-06-08 05:36:00,
2013-06-08 00:41:00,65.5,56.6,29.45,ENE,57,0.0,0.0,73,0.00,,BKN090,0.00,VWS V14.01,2013-06-08 05:41:00,
2013-06-08 00:46:00,65.5,57.0,29.45,ENE,57,0.0,0.0,74,0.00,,BKN090,0.00,VWS V14.01,2013-06-08 05:46:00,
2013-06-08 00:51:00,65.4,56.5,29.45,ENE,57,0.0,0.0,73,0.00,,BKN090,0.00,VWS V14.01,2013-06-08 05:51:00,
2013-06-08 00:56:00,65.3,56.4,29.45,ENE,57,0.0,0.0,73,0.00,,BKN090,0.00,VWS V14.01,2013-06-08 05:56:00,
2013-06-08 01:01:00,65.2,56.7,29.45,ENE,57,0.0,0.0,74,0.00,,BKN090,0.00,VWS V14.01,2013-06-08 06:01:00,
2013-06-08 01:06:00,65.2,57.1,29.45,ENE,57,0.0,0.0,75,0.00,,BKN090,0.00,VWS V14.01,2013-06-08 06:06:00,
2013-06-08 01:11:00,65.1,57.0,29.45,ENE,57,0.0,0.0,75,0.00,,BKN090,0.00,VWS V14.01,2013-06-08 06:11:00,
2013-06-08 01:16:00,65.2,57.1,29.45,ENE,57,0.0,0.0,75,0.00,,BKN090,0.00,VWS V14.01,2013-06-08 06:16:00,
2013-06-08 01:21:00,65.2,57.1,29.46,ENE,57,0.0,0.0,75,0.00,,BKN090,0.00,VWS V14.01,2013-06-08 06:21:00,
2013-06-08 01:26:00,65.2,57.1,29.45,ENE,57,0.0,0.0,75,0.00,,BKN090,0.00,VWS V14.01,2013-06-08 06:26:00,
2013-06-08 01:31:00,65.3,57.2,29.45,ENE,57,0.0,0.0,75,0.00,,BKN090,0.00,VWS V14.01,2013-06-08 06:31:00,
2013-06-08 01:36:00,65.3,57.2,29.45,ENE,57,0.0,0.0,75,0.00,,OVC090,0.00,VWS V14.01,2013-06-08 06:36:00,
2013-06-08 01:41:00,65.3,57.2,29.45,ENE,57,0.0,0.0,75,0.00,,OVC090,0.00,VWS V14.01,2013-06-08 06:41:00,
2013-06-08 01:46:00,65.2,57.1,29.45,ENE,57,0.0,0.0,75,0.00,,OVC090,0.00,VWS V14.01,2013-06-08 06:46:00,
2013-06-08 01:51:00,65.0,57.3,29.45,ENE,57,0.0,0.0,76,0.00,,OVC090,0.00,VWS V14.01,2013-06-08 06:51:00,
2013-06-08 02:01:00,64.7,57.0,29.45,ENE,57,0.0,0.0,76,0.00,,OVC090,0.00,VWS V14.01,2013-06-08 07:01:00,
2013-06-08 02:06:00,64.6,57.2,29.45,ENE,57,0.0,0.0,77,0.00,,OVC090,0.00,VWS V14.01,2013-06-08 07:06:00,
2013-06-08 02:11:00,64.5,57.1,29.45,ENE,57,0.0,0.0,77,0.00,,OVC090,0.00,VWS V14.01,2013-06-08 07:11:00,
2013-06-08 02:21:00,64.3,57.0,29.46,ENE,57,0.0,0.0,77,0.00,,OVC090,0.00,VWS V14.01,2013-06-08 07:21:00,
2013-06-08 02:31:00,64.0,56.7,29.45,ENE,57,0.0,0.0,77,0.00,,OVC090,0.00,VWS V14.01,2013-06-08 07:31:00,
2013-06-08 02:41:00,63.7,56.4,29.45,ENE,57,0.0,0.0,77,0.00,,OVC090,0.00,VWS V14.01,2013-06-08 07:41:00,
2013-06-08 02:51:00,63.5,56.2,29.45,ENE,57,0.0,0.0,77,0.00,,OVC090,0.00,VWS V14.01,2013-06-08 07:51:00,
2013-06-08 02:56:00,63.4,56.4,29.45,ENE,57,0.0,0.0,78,0.00,,OVC090,0.00,VWS V14.01,2013-06-08 07:56:00,
2013-06-08 03:01:00,63.4,56.4,29.45,ENE,57,0.0,0.0,78,0.00,,OVC090,0.00,VWS V14.01,2013-06-08 08:01:00,
2013-06-08 03:06:00,63.2,56.2,29.45,ENE,57,0.0,0.0,78,0.00,,OVC090,0.00,VWS V14.01,2013-06-08 08:06:00,
2013-06-08 03:11:00,63.1,56.1,29.45,ENE,57,0.0,0.0,78,0.00,,OVC090,0.00,VWS V14.01,2013-06-08 08:11:00,
2013-06-08 03:16:00,63.0,56.0,29.44,ENE,57,0.0,0.0,78,0.00,,OVC090,0.00,VWS V14.01,2013-06-08 08:16:00,
2013-06-08 03:21:00,62.9,55.9,29.45,ENE,57,0.0,0.0,78,0.00,,OVC090,0.00,VWS V14.01,2013-06-08 08:21:00,
2013-06-08 03:26:00,62.7,55.8,29.45,ENE,57,0.0,0.0,78,0.00,,OVC090,0.00,VWS V14.01,2013-06-08 08:26:00,
2013-06-08 03:31:00,62.6,55.7,29.44,ENE,57,0.0,0.0,78,0.00,,OVC090,0.00,VWS V14.01,2013-06-08 08:31:00,
2013-06-08 03:37:00,62.5,55.6,29.45,ENE,57,0.0,0.0,78,0.00,,FEW090,0.00,VWS V14.01,2013-06-08 08:37:00,
2013-06-08 03:42:00,62.4,55.5,29.45,ENE,57,0.0,0.0,78,0.00,,FEW090,0.00,VWS V14.01,2013-06-08 08:42:00,
2013-06-08 03:51:00,62.2,55.6,29.45,ENE,57,0.0,0.0,79,0.00,,FEW090,0.00,VWS V14.01,2013-06-08 08:51:00,
2013-06-08 03:56:00,62.1,55.5,29.45,ENE,57,0.0,0.0,79,0.00,,FEW090,0.00,VWS V14.01,2013-06-08 08:56:00,
2013-06-08 04:01:00,62.0,55.4,29.45,ENE,57,0.0,0.0,79,0.00,,FEW090,0.00,VWS V14.01,2013-06-08 09:01:00,
2013-06-08 04:06:00,61.9,55.7,29.45,ENE,57,0.0,0.0,80,0.00,,FEW090,0.00,VWS V14.01,2013-06-08 09:06:00,
2013-06-08 04:11:00,61.8,55.6,29.45,ENE,57,0.0,0.0,80,0.00,,FEW090,0.00,VWS V14.01,2013-06-08 09:11:00,
2013-06-08 04:16:00,61.8,55.9,29.45,ENE,57,0.0,0.0,81,0.00,,FEW090,0.00,VWS V14.01,2013-06-08 09:16:00,
2013-06-08 04:22:00,61.7,55.8,29.45,ENE,57,0.0,0.0,81,0.00,,FEW090,0.00,VWS V14.01,2013-06-08 09:22:00,
2013-06-08 04:32:00,61.4,55.5,29.45,ENE,57,0.0,0.0,81,0.00,,FEW090,0.00,VWS V14.01,2013-06-08 09:32:00,
2013-06-08 04:37:00,61.3,55.4,29.45,ENE,57,0.0,0.0,81,0.00,,FEW090,0.00,VWS V14.01,2013-06-08 09:37:00,
2013-06-08 04:42:00,61.2,55.7,29.45,ENE,57,0.0,0.0,82,0.00,,FEW090,0.00,VWS V14.01,2013-06-08 09:42:00,
2013-06-08 04:47:00,61.1,55.6,29.45,ENE,57,0.0,0.0,82,0.00,,FEW090,0.00,VWS V14.01,2013-06-08 09:47:00,
2013-06-08 04:52:00,61.0,55.5,29.46,ENE,57,0.0,0.0,82,0.00,,FEW090,0.00,VWS V14.01,2013-06-08 09:52:00,
2013-06-08 04:57:00,60.9,55.7,29.45,ENE,57,0.0,0.0,83,0.00,,FEW090,0.00,VWS V14.01,2013-06-08 09:57:00,
2013-06-08 05:02:00,60.8,55.6,29.46,ENE,57,0.0,0.0,83,0.00,,FEW090,0.00,VWS V14.01,2013-06-08 10:02:00,
2013-06-08 05:07:00,60.6,55.4,29.46,ENE,57,0.0,0.0,83,0.00,,FEW090,0.00,VWS V14.01,2013-06-08 10:07:00,
2013-06-08 05:12:00,60.5,55.3,29.46,ENE,57,0.0,0.0,83,0.00,,FEW090,0.00,VWS V14.01,2013-06-08 10:12:00,
2013-06-08 05:17:00,60.4,55.2,29.45,ENE,57,0.0,0.0,83,0.00,,FEW090,0.00,VWS V14.01,2013-06-08 10:17:00,
2013-06-08 05:22:00,60.4,55.2,29.45,ENE,57,0.0,0.0,83,0.00,,FEW090,0.00,VWS V14.01,2013-06-08 10:22:00,
2013-06-08 05:27:00,60.3,55.5,29.45,ENE,57,0.0,0.0,84,0.00,,FEW090,0.00,VWS V14.01,2013-06-08 10:27:00,
2013-06-08 05:32:00,60.3,55.1,29.45,ENE,57,0.0,0.0,83,0.00,,FEW090,0.00,VWS V14.01,2013-06-08 10:32:00,
2013-06-08 05:37:00,60.2,55.0,29.46,ENE,57,0.0,0.0,83,0.00,,FEW090,0.00,VWS V14.01,2013-06-08 10:37:00,
2013-06-08 05:42:00,60.1,54.9,29.46,ENE,57,0.0,0.0,83,0.00,,FEW090,0.00,VWS V14.01,2013-06-08 10:42:00,
2013-06-08 05:47:00,60.0,55.2,29.46,ENE,57,0.0,0.0,84,0.00,,FEW090,0.00,VWS V14.01,2013-06-08 10:47:00,
2013-06-08 05:52:00,60.0,55.2,29.46,ENE,57,0.0,0.0,84,0.00,,FEW090,0.00,VWS V14.01,2013-06-08 10:52:00,
2013-06-08 05:57:00,60.1,55.3,29.46,ENE,57,0.0,0.0,84,0.00,,FEW090,0.00,VWS V14.01,2013-06-08 10:57:00,
2013-06-08 06:02:00,60.0,54.5,29.46,ENE,57,0.0,0.0,82,0.00,,FEW090,0.00,VWS V14.01,2013-06-08 11:02:00,
2013-06-08 06:07:00,60.0,54.8,29.47,ENE,57,0.0,0.0,83,0.00,,FEW090,0.00,VWS V14.01,2013-06-08 11:07:00,
2013-06-08 06:12:00,59.9,54.7,29.47,ENE,57,0.0,0.0,83,0.00,,FEW090,0.00,VWS V14.01,2013-06-08 11:12:00,
2013-06-08 06:17:00,59.9,55.1,29.47,ENE,57,0.0,0.0,84,0.00,,FEW090,0.00,VWS V14.01,2013-06-08 11:17:00,
2013-06-08 06:22:00,60.0,55.2,29.48,ENE,57,0.0,0.0,84,0.00,,FEW090,0.00,VWS V14.01,2013-06-08 11:22:00,
2013-06-08 06:27:00,60.0,55.2,29.48,ENE,57,0.0,0.0,84,0.00,,FEW090,0.00,VWS V14.01,2013-06-08 11:27:00,
2013-06-08 06:32:00,60.1,55.3,29.48,ENE,57,0.0,0.0,84,0.00,,FEW090,0.00,VWS V14.01,2013-06-08 11:32:00,
2013-06-08 06:37:00,60.1,55.3,29.48,ENE,57,0.0,0.0,84,0.00,,SCT250,0.00,VWS V14.01,2013-06-08 11:37:00,
2013-06-08 06:42:00,60.2,55.7,29.49,ENE,57,0.0,0.0,85,0.00,,SCT250,0.00,VWS V14.01,2013-06-08 11:42:00,
2013-06-08 06:47:00,60.2,55.7,29.49,ENE,57,0.0,0.0,85,0.00,,SCT250,0.00,VWS V14.01,2013-06-08 11:47:00,
2013-06-08 06:52:00,60.3,55.8,29.49,ENE,57,0.0,0.0,85,0.00,,SCT250,0.00,VWS V14.01,2013-06-08 11:52:00,
2013-06-08 06:57:00,60.4,55.9,29.49,ENE,57,0.0,0.0,85,0.00,,SCT250,0.00,VWS V14.01,2013-06-08 11:57:00,
2013-06-08 07:02:00,60.6,56.1,29.50,ENE,57,0.0,0.0,85,0.00,,SCT250,0.00,VWS V14.01,2013-06-08 12:02:00,
2013-06-08 07:07:00,60.8,56.3,29.50,ENE,57,0.0,0.0,85,0.00,,SCT250,0.00,VWS V14.01,2013-06-08 12:07:00,
2013-06-08 07:12:00,61.0,56.5,29.50,ENE,57,0.0,0.0,85,0.00,,SCT250,0.00,VWS V14.01,2013-06-08 12:12:00,
2013-06-08 07:17:00,61.3,56.8,29.51,ENE,57,0.0,0.0,85,0.00,,SCT250,0.00,VWS V14.01,2013-06-08 12:17:00,
2013-06-08 07:22:00,61.7,57.2,29.51,ENE,57,0.0,0.0,85,0.00,,SCT250,0.00,VWS V14.01,2013-06-08 12:22:00,
2013-06-08 07:27:00,62.1,57.2,29.51,ENE,57,0.0,0.0,84,0.00,,SCT250,0.00,VWS V14.01,2013-06-08 12:27:00,
2013-06-08 07:32:00,62.4,57.2,29.51,ENE,57,0.0,0.0,83,0.00,,SCT250,0.00,VWS V14.01,2013-06-08 12:32:00,
2013-06-08 07:41:00,62.9,57.3,29.51,ENE,57,0.0,0.0,82,0.00,,SCT250,0.00,VWS V14.01,2013-06-08 12:41:00,
2013-06-08 07:56:00,63.7,57.1,29.52,ENE,57,0.0,0.0,79,0.00,,SCT250,0.00,VWS V14.01,2013-06-08 12:56:00,
2013-06-08 08:01:00,64.1,57.5,29.52,ENE,57,0.0,0.0,79,0.00,,SCT250,0.00,VWS V14.01,2013-06-08 13:01:00,
2013-06-08 08:16:00,65.3,57.2,29.51,ENE,57,0.0,0.0,75,0.00,,SCT250,0.00,VWS V14.01,2013-06-08 13:16:00,
2013-06-08 08:21:00,65.6,57.1,29.51,ENE,57,0.0,0.0,74,0.00,,SCT250,0.00,VWS V14.01,2013-06-08 13:21:00,
2013-06-08 08:26:00,66.1,57.2,29.51,ENE,57,0.0,0.0,73,0.00,,SCT250,0.00,VWS V14.01,2013-06-08 13:26:00,
2013-06-08 08:36:00,66.8,57.1,29.52,ENE,57,0.0,0.0,71,0.00,,SCT250,0.00,VWS V14.01,2013-06-08 13:36:00,
2013-06-08 08:41:00,67.3,57.2,29.51,ENE,57,0.0,0.0,70,0.00,,SCT250,0.00,VWS V14.01,2013-06-08 13:41:00,
2013-06-08 08:46:00,67.6,57.5,29.52,ENE,57,0.0,0.0,70,0.00,,SCT250,0.00,VWS V14.01,2013-06-08 13:46:00,
2013-06-08 08:56:00,68.1,58.0,29.51,ENE,57,0.0,0.0,70,0.00,,SCT250,0.00,VWS V14.01,2013-06-08 13:56:00,
2013-06-08 09:06:00,68.7,57.7,29.51,ENE,57,0.0,0.0,68,0.00,,SCT250,0.00,VWS V14.01,2013-06-08 14:06:00,
2013-06-08 09:11:00,68.9,57.9,29.51,ENE,57,0.0,0.0,68,0.00,,SCT250,0.00,VWS V14.01,2013-06-08 14:11:00,
2013-06-08 09:16:00,69.1,58.1,29.51,ENE,57,0.0,1.0,68,0.00,,SCT250,0.00,VWS V14.01,2013-06-08 14:16:00,
2013-06-08 09:21:00,69.3,57.9,29.51,ENE,57,0.0,0.0,67,0.00,,SCT250,0.00,VWS V14.01,2013-06-08 14:21:00,
2013-06-08 09:31:00,69.6,57.8,29.50,ENE,57,0.0,1.0,66,0.00,,SCT250,0.00,VWS V14.01,2013-06-08 14:31:00,
2013-06-08 09:36:00,69.8,57.1,29.50,ENE,57,0.0,2.0,64,0.00,,SCT250,0.00,VWS V14.01,2013-06-08 14:36:00,
2013-06-08 09:41:00,69.7,57.0,29.50,ENE,57,0.0,0.0,64,0.00,,SCT250,0.00,VWS V14.01,2013-06-08 14:41:00,
2013-06-08 09:51:00,69.9,56.8,29.50,ENE,57,0.0,1.0,63,0.00,,FEW250,0.00,VWS V14.01,2013-06-08 14:51:00,
2013-06-08 10:01:00,70.2,57.0,29.50,ENE,57,0.0,1.0,63,0.00,,FEW250,0.00,VWS V14.01,2013-06-08 15:01:00,
2013-06-08 10:06:00,70.4,56.8,29.50,NW,314,0.0,5.0,62,0.00,,FEW250,0.00,VWS V14.01,2013-06-08 15:06:00,
2013-06-08 10:11:00,70.6,56.5,29.50,NW,313,0.0,2.0,61,0.00,,FEW250,0.00,VWS V14.01,2013-06-08 15:11:00,
2013-06-08 10:16:00,70.7,56.2,29.50,ENE,68,0.0,5.0,60,0.00,,FEW250,0.00,VWS V14.01,2013-06-08 15:16:00,
2013-06-08 10:21:00,70.9,55.9,29.50,NE,48,0.0,3.0,59,0.00,,FEW250,0.00,VWS V14.01,2013-06-08 15:21:00,
2013-06-08 10:26:00,71.1,56.1,29.50,NE,53,0.0,3.0,59,0.00,,FEW250,0.00,VWS V14.01,2013-06-08 15:26:00,
2013-06-08 10:36:00,71.5,56.4,29.50,NE,51,2.0,2.0,59,0.00,,SCT250,0.00,VWS V14.01,2013-06-08 15:36:00,
2013-06-08 10:41:00,71.9,56.8,29.50,NE,42,0.0,3.0,59,0.00,,SCT250,0.00,VWS V14.01,2013-06-08 15:41:00,
2013-06-08 10:46:00,72.0,57.4,29.50,NNE,33,0.0,3.0,60,0.00,,SCT250,0.00,VWS V14.01,2013-06-08 15:46:00,
2013-06-08 10:51:00,72.5,56.9,29.50,West,266,2.0,5.0,58,0.00,,SCT250,0.00,VWS V14.01,2013-06-08 15:51:00,
2013-06-08 10:56:00,72.6,57.5,29.50,West,267,1.0,3.0,59,0.00,,SCT250,0.00,VWS V14.01,2013-06-08 15:56:00,
2013-06-08 11:01:00,72.6,56.5,29.49,West,266,0.0,3.0,57,0.00,,SCT250,0.00,VWS V14.01,2013-06-08 16:01:00,
2013-06-08 11:06:00,72.5,56.4,29.50,West,264,0.0,4.0,57,0.00,,SCT250,0.00,VWS V14.01,2013-06-08 16:06:00,
2013-06-08 11:11:00,72.6,57.0,29.49,West,264,0.0,3.0,58,0.00,,SCT250,0.00,VWS V14.01,2013-06-08 16:11:00,
2013-06-08 11:26:00,73.5,55.9,29.50,West,265,0.0,1.0,54,0.00,,SCT250,0.00,VWS V14.01,2013-06-08 16:26:00,
2013-06-08 11:31:00,73.8,56.1,29.49,West,265,0.0,1.0,54,0.00,,SCT250,0.00,VWS V14.01,2013-06-08 16:31:00,
2013-06-08 11:36:00,74.0,56.3,29.49,West,265,1.0,2.0,54,0.00,,BKN250,0.00,VWS V14.01,2013-06-08 16:36:00,
2013-06-08 11:41:00,74.1,55.9,29.49,West,265,0.0,2.0,53,0.00,,BKN250,0.00,VWS V14.01,2013-06-08 16:41:00,
2013-06-08 11:46:00,74.3,53.9,29.49,West,264,0.0,4.0,49,0.00,,BKN250,0.00,VWS V14.01,2013-06-08 16:46:00,
2013-06-08 11:51:00,74.3,53.9,29.50,West,264,0.0,1.0,49,0.00,,BKN250,0.00,VWS V14.01,2013-06-08 16:51:00,
2013-06-08 12:01:00,74.8,54.4,29.50,West,265,0.0,5.0,49,0.00,,BKN250,0.00,VWS V14.01,2013-06-08 17:01:00,
2013-06-08 12:06:00,75.1,54.1,29.50,West,265,1.0,3.0,48,0.00,,BKN250,0.00,VWS V14.01,2013-06-08 17:06:00,
2013-06-08 12:11:00,75.5,54.5,29.50,West,265,0.0,3.0,48,0.00,,BKN250,0.00,VWS V14.01,2013-06-08 17:11:00,
2013-06-08 12:16:00,75.9,54.2,29.50,West,265,0.0,2.0,47,0.00,,BKN250,0.00,VWS V14.01,2013-06-08 17:16:00,
2013-06-08 12:21:00,76.4,55.3,29.49,West,265,4.0,4.0,48,0.00,,BKN250,0.00,VWS V14.01,2013-06-08 17:21:00,
2013-06-08 12:26:00,76.5,53.6,29.49,WNW,290,0.0,4.0,45,0.00,,BKN250,0.00,VWS V14.01,2013-06-08 17:26:00,
2013-06-08 12:31:00,76.5,53.6,29.49,WNW,290,0.0,3.0,45,0.00,,BKN250,0.00,VWS V14.01,2013-06-08 17:31:00,
2013-06-08 12:41:00,76.9,53.3,29.49,WNW,290,4.0,6.0,44,0.00,,BKN250,0.00,VWS V14.01,2013-06-08 17:41:00,
2013-06-08 12:47:00,76.8,52.0,29.49,WNW,289,0.0,5.0,42,0.00,,BKN250,0.00,VWS V14.01,2013-06-08 17:47:00,
2013-06-08 12:56:00,77.4,54.4,29.48,SSE,166,0.0,4.0,45,0.00,,BKN250,0.00,VWS V14.01,2013-06-08 17:56:00,
2013-06-08 13:01:00,77.7,54.7,29.49,SSE,166,1.0,3.0,45,0.00,,BKN250,0.00,VWS V14.01,2013-06-08 18:01:00,
2013-06-08 13:06:00,78.1,55.7,29.48,SSE,166,0.0,4.0,46,0.00,,BKN250,0.00,VWS V14.01,2013-06-08 18:06:00,
2013-06-08 13:11:00,78.5,55.4,29.48,SSE,165,0.0,4.0,45,0.00,,BKN250,0.00,VWS V14.01,2013-06-08 18:11:00,
2013-06-08 13:16:00,78.5,52.9,29.48,SSE,165,1.0,4.0,41,0.00,,BKN250,0.00,VWS V14.01,2013-06-08 18:16:00,
2013-06-08 13:26:00,78.7,53.0,29.48,West,271,1.0,5.0,41,0.00,,BKN250,0.00,VWS V14.01,2013-06-08 18:26:00,
2013-06-08 13:31:00,78.8,53.8,29.48,West,261,0.0,5.0,42,0.00,,BKN250,0.00,VWS V14.01,2013-06-08 18:31:00,
2013-06-08 13:36:00,78.7,53.0,29.48,West,274,1.0,5.0,41,0.00,,BKN250,0.00,VWS V14.01,2013-06-08 18:36:00,
2013-06-08 13:41:00,78.9,53.9,29.48,West,274,0.0,2.0,42,0.00,,BKN250,0.00,VWS V14.01,2013-06-08 18:41:00,
2013-06-08 13:46:00,78.8,53.1,29.48,West,274,0.0,4.0,41,0.00,,BKN250,0.00,VWS V14.01,2013-06-08 18:46:00,
2013-06-08 13:51:00,79.1,53.4,29.47,West,274,1.0,2.0,41,0.00,,BKN250,0.00,VWS V14.01,2013-06-08 18:51:00,
2013-06-08 13:56:00,79.2,53.5,29.47,West,272,0.0,4.0,41,0.00,,BKN250,0.00,VWS V14.01,2013-06-08 18:56:00,
2013-06-08 14:01:00,79.5,55.1,29.48,West,272,1.0,3.0,43,0.00,,BKN250,0.00,VWS V14.01,2013-06-08 19:01:00,
2013-06-08 14:06:00,79.7,56.5,29.48,SE,145,1.0,6.0,45,0.00,,BKN250,0.00,VWS V14.01,2013-06-08 19:06:00,
2013-06-08 14:11:00,79.7,55.9,29.48,SSW,196,0.0,6.0,44,0.00,,BKN250,0.00,VWS V14.01,2013-06-08 19:11:00,
2013-06-08 14:16:00,79.8,56.0,29.47,SSW,196,1.0,3.0,44,0.00,,BKN250,0.00,VWS V14.01,2013-06-08 19:16:00,
2013-06-08 14:21:00,79.4,55.6,29.47,SSW,194,0.0,4.0,44,0.00,,BKN250,0.00,VWS V14.01,2013-06-08 19:21:00,
2013-06-08 14:26:00,78.7,55.0,29.47,SSW,194,0.0,3.0,44,0.00,,BKN250,0.00,VWS V14.01,2013-06-08 19:26:00,
2013-06-08 14:31:00,77.9,55.5,29.47,SSW,194,0.0,1.0,46,0.00,,BKN250,0.00,VWS V14.01,2013-06-08 19:31:00,
2013-06-08 14:37:00,78.0,53.7,29.47,WNW,301,4.0,6.0,43,0.00,,BKN250,0.00,VWS V14.01,2013-06-08 19:37:00,
2013-06-08 14:42:00,77.8,54.8,29.47,WNW,300,2.0,6.0,45,0.00,,BKN250,0.00,VWS V14.01,2013-06-08 19:42:00,
2013-06-08 14:47:00,78.0,55.0,29.47,WNW,298,3.0,4.0,45,0.00,,BKN250,0.00,VWS V14.01,2013-06-08 19:47:00,
2013-06-08 14:52:00,78.5,55.4,29.47,SW,234,1.0,4.0,45,0.00,,BKN250,0.00,VWS V14.01,2013-06-08 19:52:00,
2013-06-08 14:57:00,79.1,56.0,29.47,WSW,246,0.0,2.0,45,0.00,,BKN250,0.00,VWS V14.01,2013-06-08 19:57:00,
2013-06-08 15:02:00,79.6,55.2,29.47,WSW,243,0.0,4.0,43,0.00,,BKN250,0.00,VWS V14.01,2013-06-08 20:02:00,
2013-06-08 15:12:00,79.8,54.7,29.46,WSW,243,3.0,4.0,42,0.00,,BKN250,0.00,VWS V14.01,2013-06-08 20:12:00,
2013-06-08 15:17:00,79.5,54.4,29.45,West,262,0.0,4.0,42,0.00,,BKN250,0.00,VWS V14.01,2013-06-08 20:17:00,
2013-06-08 15:22:00,79.6,54.5,29.45,West,266,2.0,4.0,42,0.00,,BKN250,0.00,VWS V14.01,2013-06-08 20:22:00,
2013-06-08 15:32:00,80.4,55.9,29.45,West,264,0.0,2.0,43,0.00,,BKN250,0.00,VWS V14.01,2013-06-08 20:32:00,
2013-06-08 15:37:00,80.7,55.5,29.46,WNW,282,0.0,5.0,42,0.00,,BKN250,0.00,VWS V14.01,2013-06-08 20:37:00,
2013-06-08 15:42:00,80.4,54.6,29.46,WNW,282,0.0,4.0,41,0.00,,BKN250,0.00,VWS V14.01,2013-06-08 20:42:00,
2013-06-08 15:47:00,80.5,54.7,29.45,WNW,282,1.0,3.0,41,0.00,,BKN250,0.00,VWS V14.01,2013-06-08 20:47:00,
2013-06-08 15:52:00,80.9,54.3,29.46,WNW,282,1.0,3.0,40,0.00,,BKN250,0.00,VWS V14.01,2013-06-08 20:52:00,
2013-06-08 15:57:00,80.7,54.2,29.46,WSW,241,4.0,6.0,40,0.00,,BKN250,0.00,VWS V14.01,2013-06-08 20:57:00,
2013-06-08 16:02:00,80.2,53.7,29.46,WNW,292,0.0,5.0,40,0.00,,BKN250,0.00,VWS V14.01,2013-06-08 21:02:00,
2013-06-08 16:07:00,80.2,54.4,29.46,WNW,290,1.0,3.0,41,0.00,,BKN250,0.00,VWS V14.01,2013-06-08 21:07:00,
2013-06-08 16:12:00,80.4,53.9,29.45,WNW,290,0.0,2.0,40,0.00,,BKN250,0.00,VWS V14.01,2013-06-08 21:12:00,
2013-06-08 16:17:00,80.3,54.5,29.45,WNW,290,0.0,2.0,41,0.00,,BKN250,0.00,VWS V14.01,2013-06-08 21:17:00,
2013-06-08 16:22:00,80.1,53.6,29.46,WNW,290,2.0,3.0,40,0.00,,BKN250,0.00,VWS V14.01,2013-06-08 21:22:00,
2013-06-08 16:27:00,79.6,54.5,29.46,WNW,290,0.0,2.0,42,0.00,,BKN250,0.00,VWS V14.01,2013-06-08 21:27:00,
2013-06-08 16:32:00,79.7,53.9,29.45,WNW,290,0.0,1.0,41,0.00,,BKN250,0.00,VWS V14.01,2013-06-08 21:32:00,
2013-06-08 16:37:00,79.8,54.7,29.46,WNW,290,0.0,2.0,42,0.00,,BKN250,0.00,VWS V14.01,2013-06-08 21:37:00,
2013-06-08 16:42:00,79.8,55.3,29.45,WNW,290,0.0,2.0,43,0.00,,BKN250,0.00,VWS V14.01,2013-06-08 21:42:00,
2013-06-08 16:47:00,79.6,55.2,29.46,WNW,289,0.0,2.0,43,0.00,,BKN250,0.00,VWS V14.01,2013-06-08 21:47:00,
2013-06-08 16:52:00,79.6,55.2,29.45,WNW,287,0.0,3.0,43,0.00,,BKN250,0.00,VWS V14.01,2013-06-08 21:52:00,
2013-06-08 16:57:00,79.7,55.2,29.45,NE,38,0.0,5.0,43,0.00,,BKN250,0.00,VWS V14.01,2013-06-08 21:57:00,
2013-06-08 17:02:00,79.9,56.1,29.46,WNW,289,1.0,6.0,44,0.00,,BKN250,0.00,VWS V14.01,2013-06-08 22:02:00,
2013-06-08 17:07:00,80.2,56.3,29.46,WNW,287,1.0,3.0,44,0.00,,BKN250,0.00,VWS V14.01,2013-06-08 22:07:00,
2013-06-08 17:12:00,80.3,56.4,29.46,WNW,286,0.0,3.0,44,0.00,,BKN250,0.00,VWS V14.01,2013-06-08 22:12:00,
2013-06-08 17:17:00,80.2,55.7,29.45,WNW,286,1.0,2.0,43,0.00,,BKN250,0.00,VWS V14.01,2013-06-08 22:17:00,
2013-06-08 17:22:00,80.0,56.8,29.45,WNW,286,0.0,1.0,45,0.00,,BKN250,0.00,VWS V14.01,2013-06-08 22:22:00,
2013-06-08 17:27:00,79.9,55.4,29.45,West,266,2.0,7.0,43,0.00,,BKN250,0.00,VWS V14.01,2013-06-08 22:27:00,
2013-06-08 17:32:00,79.9,55.4,29.45,WSW,257,0.0,3.0,43,0.00,,BKN250,0.00,VWS V14.01,2013-06-08 22:32:00,
2013-06-08 17:41:00,79.8,56.0,29.45,WSW,250,0.0,3.0,44,0.00,,BKN250,0.00,VWS V14.01,2013-06-08 22:41:00,
2013-06-08 17:51:00,79.6,57.0,29.45,SW,230,3.0,3.0,46,0.00,,BKN250,0.00,VWS V14.01,2013-06-08 22:51:00,
2013-06-08 17:56:00,79.7,57.1,29.45,SW,231,0.0,3.0,46,0.00,,BKN250,0.00,VWS V14.01,2013-06-08 22:56:00,
2013-06-08 18:01:00,79.7,57.1,29.45,SW,229,0.0,3.0,46,0.00,,BKN250,0.00,VWS V14.01,2013-06-08 23:01:00,
2013-06-08 18:11:00,79.8,57.2,29.45,SW,229,0.0,3.0,46,0.00,,BKN250,0.00,VWS V14.01,2013-06-08 23:11:00,
2013-06-08 18:21:00,79.7,57.1,29.45,SW,224,0.0,4.0,46,0.00,,BKN250,0.00,VWS V14.01,2013-06-08 23:21:00,
2013-06-08 18:31:00,79.4,56.8,29.45,SW,224,0.0,3.0,46,0.00,,BKN250,0.00,VWS V14.01,2013-06-08 23:31:00,
2013-06-08 18:36:00,79.3,56.8,29.45,SW,224,2.0,2.0,46,0.00,,SCT250,0.00,VWS V14.01,2013-06-08 23:36:00,
2013-06-08 18:41:00,79.2,56.7,29.45,SW,224,0.0,2.0,46,0.00,,SCT250,0.00,VWS V14.01,2013-06-08 23:41:00,
2013-06-08 18:56:00,78.8,56.3,29.44,SW,224,0.0,2.0,46,0.00,,SCT250,0.00,VWS V14.01,2013-06-08 23:56:00,
2013-06-08 19:01:00,78.7,56.8,29.45,SW,224,0.0,2.0,47,0.00,,SCT250,0.00,VWS V14.01,2013-06-09 00:01:00,
2013-06-08 19:06:00,78.6,56.7,29.45,SW,224,0.0,0.0,47,0.00,,SCT250,0.00,VWS V14.01,2013-06-09 00:06:00,
2013-06-08 19:16:00,78.5,56.6,29.45,SW,224,0.0,0.0,47,0.00,,SCT250,0.00,VWS V14.01,2013-06-09 00:16:00,
2013-06-08 19:21:00,78.5,57.2,29.45,SW,224,0.0,0.0,48,0.00,,SCT250,0.00,VWS V14.01,2013-06-09 00:21:00,
2013-06-08 19:31:00,78.4,57.1,29.45,SW,224,0.0,0.0,48,0.00,,SCT250,0.00,VWS V14.01,2013-06-09 00:31:00,
2013-06-08 19:36:00,78.2,56.3,29.46,SW,224,0.0,3.0,47,0.00,,SCT250,0.00,VWS V14.01,2013-06-09 00:36:00,
2013-06-08 19:46:00,77.9,56.7,29.45,SW,224,0.0,0.0,48,0.00,,SCT250,0.00,VWS V14.01,2013-06-09 00:46:00,
2013-06-08 19:51:00,77.6,56.4,29.45,SW,224,0.0,0.0,48,0.00,,SCT250,0.00,VWS V14.01,2013-06-09 00:51:00,
2013-06-08 20:01:00,77.3,56.7,29.45,SW,224,0.0,0.0,49,0.00,,SCT250,0.00,VWS V14.01,2013-06-09 01:01:00,
2013-06-08 20:06:00,77.0,57.0,29.45,SW,224,0.0,0.0,50,0.00,,SCT250,0.00,VWS V14.01,2013-06-09 01:06:00,
2013-06-08 20:21:00,76.5,57.0,29.45,SW,224,0.0,0.0,51,0.00,,SCT250,0.00,VWS V14.01,2013-06-09 01:21:00,
2013-06-08 20:26:00,76.2,57.3,29.44,SW,224,0.0,0.0,52,0.00,,SCT250,0.00,VWS V14.01,2013-06-09 01:26:00,
2013-06-08 20:36:00,75.8,57.5,29.45,SW,224,0.0,1.0,53,0.00,,SCT250,0.00,VWS V14.01,2013-06-09 01:36:00,
2013-06-08 20:41:00,75.6,57.3,29.45,SW,224,0.0,0.0,53,0.00,,SCT250,0.00,VWS V14.01,2013-06-09 01:41:00,
2013-06-08 20:51:00,75.3,57.0,29.45,SW,224,0.0,0.0,53,0.00,,SCT250,0.00,VWS V14.01,2013-06-09 01:51:00,
2013-06-08 20:56:00,75.1,56.8,29.45,SW,224,0.0,0.0,53,0.00,,SCT250,0.00,VWS V14.01,2013-06-09 01:56:00,
2013-06-08 21:01:00,75.0,57.2,29.45,SW,224,0.0,0.0,54,0.00,,SCT250,0.00,VWS V14.01,2013-06-09 02:01:00,
2013-06-08 21:06:00,74.8,57.1,29.45,SW,224,0.0,0.0,54,0.00,,SCT250,0.00,VWS V14.01,2013-06-09 02:06:00,
2013-06-08 21:11:00,74.7,57.5,29.45,SW,224,0.0,2.0,55,0.00,,SCT250,0.00,VWS V14.01,2013-06-09 02:11:00,
2013-06-08 21:21:00,74.4,57.2,29.45,SW,224,0.0,1.0,55,0.00,,SCT250,0.00,VWS V14.01,2013-06-09 02:21:00,
2013-06-08 21:31:00,74.2,57.5,29.47,SW,224,0.0,0.0,56,0.00,,SCT250,0.00,VWS V14.01,2013-06-09 02:31:00,
2013-06-08 21:36:00,74.0,57.3,29.47,SW,224,0.0,0.0,56,0.00,,SCT180,0.00,VWS V14.01,2013-06-09 02:36:00,
2013-06-08 21:46:00,73.8,57.6,29.48,SW,224,0.0,0.0,57,0.00,,SCT180,0.00,VWS V14.01,2013-06-09 02:46:00,
2013-06-08 21:51:00,73.7,58.0,29.48,SW,224,0.0,0.0,58,0.00,,SCT180,0.00,VWS V14.01,2013-06-09 02:51:00,
2013-06-08 21:56:00,73.6,57.9,29.48,SW,224,0.0,0.0,58,0.00,,SCT180,0.00,VWS V14.01,2013-06-09 02:56:00,
2013-06-08 22:01:00,73.5,58.3,29.49,SW,224,0.0,0.0,59,0.00,,SCT180,0.00,VWS V14.01,2013-06-09 03:01:00,
2013-06-08 22:06:00,73.3,58.1,29.49,SW,224,0.0,0.0,59,0.00,,SCT180,0.00,VWS V14.01,2013-06-09 03:06:00,
2013-06-08 22:11:00,73.2,58.0,29.49,SW,223,0.0,0.0,59,0.00,,SCT180,0.00,VWS V14.01,2013-06-09 03:11:00,
2013-06-08 22:16:00,73.1,58.4,29.49,SW,223,0.0,0.0,60,0.00,,SCT180,0.00,VWS V14.01,2013-06-09 03:16:00,
2013-06-08 22:21:00,73.0,58.3,29.49,SW,223,0.0,0.0,60,0.00,,SCT180,0.00,VWS V14.01,2013-06-09 03:21:00,
2013-06-08 22:26:00,72.9,58.7,29.49,SW,224,0.0,0.0,61,0.00,,SCT180,0.00,VWS V14.01,2013-06-09 03:26:00,
2013-06-08 22:31:00,72.8,58.6,29.50,SW,223,0.0,0.0,61,0.00,,SCT180,0.00,VWS V14.01,2013-06-09 03:31:00,
2013-06-08 22:36:00,72.7,58.5,29.50,SW,224,0.0,0.0,61,0.00,,CLR,0.00,VWS V14.01,2013-06-09 03:36:00,
2013-06-08 22:41:00,72.6,58.8,29.50,SW,224,0.0,0.0,62,0.00,,CLR,0.00,VWS V14.01,2013-06-09 03:41:00,
2013-06-08 22:46:00,72.5,58.8,29.49,SW,224,0.0,0.0,62,0.00,,CLR,0.00,VWS V14.01,2013-06-09 03:46:00,
2013-06-08 22:51:00,72.4,58.7,29.49,SW,224,0.0,0.0,62,0.00,,CLR,0.00,VWS V14.01,2013-06-09 03:51:00,
2013-06-08 22:56:00,72.3,59.0,29.49,SW,224,0.0,0.0,63,0.00,,CLR,0.00,VWS V14.01,2013-06-09 03:56:00,
2013-06-08 23:01:00,72.1,58.8,29.50,SW,224,0.0,0.0,63,0.00,,CLR,0.00,VWS V14.01,2013-06-09 04:01:00,
2013-06-08 23:06:00,72.0,58.7,29.50,SW,224,0.0,0.0,63,0.00,,CLR,0.00,VWS V14.01,2013-06-09 04:06:00,
2013-06-08 23:16:00,71.8,59.0,29.50,SW,224,0.0,0.0,64,0.00,,CLR,0.00,VWS V14.01,2013-06-09 04:16:00,
2013-06-08 23:21:00,71.7,58.9,29.49,SW,223,0.0,0.0,64,0.00,,CLR,0.00,VWS V14.01,2013-06-09 04:21:00,
2013-06-08 23:26:00,71.5,59.1,29.50,SW,224,0.0,0.0,65,0.00,,CLR,0.00,VWS V14.01,2013-06-09 04:26:00,
2013-06-08 23:31:00,71.4,59.0,29.50,SW,224,0.0,0.0,65,0.00,,CLR,0.00,VWS V14.01,2013-06-09 04:31:00,
2013-06-08 23:36:00,71.3,58.9,29.50,SW,223,0.0,0.0,65,0.00,,FEW120,0.00,VWS V14.01,2013-06-09 04:36:00,
2013-06-08 23:41:00,71.2,59.3,29.50,SW,224,0.0,0.0,66,0.00,,FEW120,0.00,VWS V14.01,2013-06-09 04:41:00,
2013-06-08 23:46:00,71.1,59.2,29.50,SW,224,0.0,0.0,66,0.00,,FEW120,0.00,VWS V14.01,2013-06-09 04:46:00,
2013-06-08 23:52:00,71.0,59.1,29.49,SW,224,0.0,0.0,66,0.00,,FEW120,0.00,VWS V14.01,2013-06-09 04:52:00,